• In Netherlands
  • List of Countries
  • For 7 days
  • Water Temperature
  • Satellite Maps
  • Weather Map
  • Weather Widgets
  • user-avatar
    Login

    Hourly Weather Giumri

    Today, 20 August, Sunday

    Time Temperature Precipitation Wind Pressure Humidity
    00:00 +16°C° 0 mm 2 mps 636 mmHg 75%
    01:00 +16°C° 0 mm 2 mps 636 mmHg 75%
    02:00 +15°C° 0 mm 2 mps 636 mmHg 75%
    03:00 +15°C° 0 mm 2 mps 636 mmHg 76%
    04:00 +15°C° 0 mm 2 mps 636 mmHg 75%
    05:00 +15°C° 0 mm 2 mps 636 mmHg 75%
    06:00 +15°C° 0 mm 2 mps 636 mmHg 74%
    07:00 +17°C° 0 mm 2 mps 636 mmHg 66%
    08:00 +20°C° 0 mm 2 mps 637 mmHg 58%
    09:00 +23°C° 0 mm 2 mps 638 mmHg 50%
    10:00 +25°C° 0 mm 3 mps 638 mmHg 47%
    11:00 +26°C° 0 mm 3 mps 638 mmHg 43%
    12:00 +28°C° 0 mm 3 mps 638 mmHg 39%
    13:00 +28°C° 0 mm 3 mps 638 mmHg 38%
    14:00 +29°C° 0 mm 3 mps 638 mmHg 36%
    15:00 +29°C° 0 mm 3 mps 637 mmHg 35%
    16:00 +28°C° 0 mm 3 mps 637 mmHg 40%
    17:00 +26°C° 0 mm 3 mps 636 mmHg 44%
    18:00 +25°C° 0 mm 3 mps 636 mmHg 49%
    19:00 +22°C° 0 mm 3 mps 636 mmHg 53%
    20:00 +20°C° 0 mm 3 mps 635 mmHg 57%
    21:00 +18°C° 0 mm 3 mps 635 mmHg 62%
    22:00 +17°C° 0 mm 2 mps 635 mmHg 61%
    23:00 +17°C° 0 mm 2 mps 635 mmHg 60%

    Tomorrow, 21 August, Monday

    Time Temperature Precipitation Wind Pressure Humidity
    00:00 +16°C° 0 mm 2 mps 635 mmHg 59%
    01:00 +16°C° 0 mm 2 mps 635 mmHg 60%
    02:00 +15°C° 0 mm 2 mps 635 mmHg 60%
    03:00 +15°C° 0 mm 2 mps 635 mmHg 60%
    04:00 +15°C° 0 mm 2 mps 635 mmHg 62%
    05:00 +15°C° 0 mm 2 mps 635 mmHg 63%
    06:00 +15°C° 0 mm 2 mps 635 mmHg 64%
    07:00 +18°C° 0 mm 2 mps 635 mmHg 57%
    08:00 +20°C° 0 mm 2 mps 636 mmHg 51%
    09:00 +24°C° 0 mm 2 mps 636 mmHg 44%
    10:00 +26°C° 0 mm 2 mps 636 mmHg 40%
    11:00 +27°C° 0 mm 3 mps 637 mmHg 36%
    12:00 +29°C° 0 mm 3 mps 637 mmHg 32%
    13:00 +29°C° 0 mm 3 mps 636 mmHg 30%
    14:00 +30°C° 0 mm 3 mps 636 mmHg 29%
    15:00 +30°C° 0 mm 3 mps 636 mmHg 28%
    16:00 +29°C° 0 mm 3 mps 635 mmHg 33%
    17:00 +28°C° 0 mm 3 mps 635 mmHg 37%
    18:00 +26°C° 0 mm 3 mps 634 mmHg 42%
    19:00 +24°C° 0 mm 2 mps 634 mmHg 48%
    20:00 +21°C° 0 mm 2 mps 634 mmHg 54%
    21:00 +19°C° 0 mm 2 mps 633 mmHg 60%
    22:00 +18°C° 0 mm 2 mps 633 mmHg 61%
    23:00 +18°C° 0 mm 2 mps 633 mmHg 62%

    Day after tomorrow, 22 August, Tuesday

    Time Temperature Precipitation Wind Pressure Humidity
    00:00 +17°C° 0 mm 2 mps 633 mmHg 63%
    01:00 +17°C° 0 mm 2 mps 633 mmHg 63%
    02:00 +16°C° 0 mm 2 mps 633 mmHg 64%
    03:00 +16°C° 0 mm 1 mps 633 mmHg 65%
    04:00 +16°C° 0 mm 1 mps 633 mmHg 65%
    05:00 +16°C° 0 mm 1 mps 633 mmHg 65%
    06:00 +16°C° 0 mm 1 mps 633 mmHg 65%
    07:00 +20°C° 0 mm 1 mps 634 mmHg 56%
    08:00 +23°C° 0 mm 2 mps 635 mmHg 47%
    09:00 +26°C° 0 mm 2 mps 636 mmHg 39%
    10:00 +27°C° 0 mm 2 mps 636 mmHg 36%
    11:00 +29°C° 0 mm 3 mps 636 mmHg 32%
    12:00 +30°C° 0 mm 3 mps 636 mmHg 29%
    13:00 +31°C° 0 mm 3 mps 636 mmHg 28%
    14:00 +31°C° 0 mm 3 mps 635 mmHg 27%
    15:00 +31°C° 0 mm 3 mps 635 mmHg 26%
    16:00 +30°C° 0 mm 3 mps 635 mmHg 32%
    17:00 +28°C° 0 mm 3 mps 634 mmHg 37%
    18:00 +27°C° 0 mm 3 mps 634 mmHg 42%
    19:00 +24°C° 0 mm 3 mps 634 mmHg 48%
    20:00 +21°C° 0 mm 3 mps 634 mmHg 54%
    21:00 +19°C° 0 mm 3 mps 633 mmHg 59%
    22:00 +18°C° 0 mm 3 mps 633 mmHg 58%
    23:00 +18°C° 0 mm 2 mps 633 mmHg 58%

    23 August, Wednesday

    Time Temperature Precipitation Wind Pressure Humidity
    00:00 +17°C° 0 mm 2 mps 633 mmHg 57%
    01:00 +17°C° 0 mm 2 mps 633 mmHg 58%
    02:00 +16°C° 0 mm 2 mps 633 mmHg 58%
    03:00 +16°C° 0 mm 2 mps 633 mmHg 59%
    04:00 +16°C° 0 mm 2 mps 633 mmHg 59%
    05:00 +16°C° 0 mm 2 mps 633 mmHg 60%
    06:00 +16°C° 0 mm 2 mps 634 mmHg 61%
    07:00 +18°C° 0 mm 2 mps 634 mmHg 54%
    08:00 +21°C° 0 mm 2 mps 635 mmHg 48%
    09:00 +25°C° 0 mm 2 mps 636 mmHg 41%
    10:00 +26°C° 0 mm 2 mps 636 mmHg 38%
    11:00 +28°C° 0 mm 3 mps 636 mmHg 35%
    12:00 +30°C° 0 mm 3 mps 637 mmHg 31%
    13:00 +30°C° 0 mm 3 mps 637 mmHg 30%
    14:00 +31°C° 0 mm 3 mps 637 mmHg 29%
    15:00 +31°C° 0 mm 3 mps 637 mmHg 28%
    16:00 +29°C° 0 mm 3 mps 637 mmHg 35%
    17:00 +27°C° 0 mm 4 mps 636 mmHg 41%
    18:00 +26°C° 0 mm 4 mps 636 mmHg 47%
    19:00 +23°C° 0 mm 4 mps 636 mmHg 50%
    20:00 +21°C° 0 mm 4 mps 636 mmHg 53%
    21:00 +19°C° 0 mm 4 mps 636 mmHg 57%
    22:00 +18°C° 0 mm 3 mps 636 mmHg 57%
    23:00 +17°C° 0 mm 3 mps 636 mmHg 58%

    24 August, Thursday

    Time Temperature Precipitation Wind Pressure Humidity
    00:00 +17°C° 0 mm 3 mps 636 mmHg 59%
    01:00 +16°C° 0 mm 3 mps 636 mmHg 62%
    02:00 +16°C° 0 mm 3 mps 636 mmHg 65%
    03:00 +14°C° 0 mm 3 mps 636 mmHg 67%
    04:00 +15°C° 0 mm 2 mps 636 mmHg 68%
    05:00 +15°C° 0 mm 2 mps 636 mmHg 69%
    06:00 +15°C° 0 mm 2 mps 636 mmHg 70%
    07:00 +18°C° 0 mm 2 mps 637 mmHg 62%
    08:00 +20°C° 0 mm 2 mps 638 mmHg 54%
    09:00 +24°C° 0 mm 2 mps 638 mmHg 47%
    10:00 +25°C° 0 mm 2 mps 638 mmHg 43%
    11:00 +27°C° 0 mm 2 mps 639 mmHg 39%
    12:00 +28°C° 0 mm 3 mps 639 mmHg 35%
    13:00 +29°C° 0 mm 3 mps 639 mmHg 35%
    14:00 +29°C° 0 mm 3 mps 639 mmHg 35%
    15:00 +30°C° 0 mm 4 mps 639 mmHg 34%
    16:00 +28°C° 0 mm 4 mps 638 mmHg 39%
    17:00 +27°C° 0 mm 4 mps 638 mmHg 44%
    18:00 +25°C° 0 mm 4 mps 638 mmHg 49%
    19:00 +22°C° 0 mm 4 mps 638 mmHg 52%
    20:00 +20°C° 0 mm 3 mps 638 mmHg 54%
    21:00 +18°C° 0 mm 3 mps 638 mmHg 57%
    22:00 +18°C° 0 mm 3 mps 638 mmHg 56%
    23:00 +17°C° 0 mm 3 mps 638 mmHg 54%

    25 August, Friday

    Time Temperature Precipitation Wind Pressure Humidity
    00:00 +16°C° 0 mm 3 mps 637 mmHg 52%
    01:00 +16°C° 0 mm 3 mps 637 mmHg 52%
    02:00 +14°C° 0 mm 3 mps 637 mmHg 52%
    03:00 +15°C° 0 mm 2 mps 637 mmHg 53%
    04:00 +15°C° 0 mm 2 mps 637 mmHg 54%
    05:00 +15°C° 0 mm 2 mps 637 mmHg 56%
    06:00 +14°C° 0 mm 2 mps 637 mmHg 57%
    07:00 +17°C° 0 mm 2 mps 638 mmHg 51%
    08:00 +20°C° 0 mm 2 mps 638 mmHg 45%
    09:00 +23°C° 0 mm 2 mps 639 mmHg 39%
    10:00 +25°C° 0 mm 2 mps 639 mmHg 37%
    11:00 +26°C° 0 mm 3 mps 639 mmHg 34%
    12:00 +28°C° 0 mm 3 mps 639 mmHg 32%
    13:00 +28°C° 0 mm 3 mps 639 mmHg 32%
    14:00 +28°C° 0 mm 3 mps 639 mmHg 31%
    15:00 +29°C° 0 mm 4 mps 639 mmHg 31%
    16:00 +27°C° 0 mm 4 mps 638 mmHg 34%
    17:00 +26°C° 0 mm 4 mps 638 mmHg 38%
    18:00 +23°C° 0 mm 4 mps 637 mmHg 41%
    19:00 +21°C° 0 mm 4 mps 637 mmHg 42%
    20:00 +19°C° 0 mm 3 mps 637 mmHg 42%
    21:00 +17°C° 0 mm 3 mps 637 mmHg 43%
    22:00 +17°C° 0 mm 3 mps 637 mmHg 41%
    23:00 +16°C° 0 mm 3 mps 637 mmHg 40%
    Show more